STARLINK-1041

Last updated on Thu Dec 12 2019 00:02:03 GMT+0000 (Coordinated Universal Time)

1 44746U 19074AK 19345.58335648 -.00069682 00000-0 -19155-2 0 9996 2 44746 53.0080 24.0010 0001412 52.5848 289.9937 15.36815567 4705

Satellite not in orbit